QPF
0.00 0.00 0.00 0.00 0.00 0.00 0.00 0.00 0.00 0.00 0.00 0.00 0.00 0.00 0.00 0.00 0.00 0.00 0.00 0.00 0.00 0.00 0.01 0.02 0.02 0.01 0.01 0.01 0.00 0.00 0.00 0.00 0.00 0.00 0.01 0.01 0.01 0.01 0.00 0.00 0.00 0.00 0.00
0.00 0.00 0.00 0.00 0.00 0.00 0.00 0.00 0.00 0.00 0.00 0.00 0.00 0.00 0.00 0.00 0.00 0.00 0.00 0.00 0.00 0.01 0.02 0.03 0.02 0.01 0.01 0.01 0.00 0.00 0.00 0.00 0.00 0.00 0.00 0.00 0.00 0.00 0.00 0.00 0.00 0.00 0.01
0.00 0.00 0.00 0.00 0.00 0.00 0.00 0.00 0.00 0.00 0.00 0.00 0.00 0.00 0.00 0.00 0.00 0.00 0.00 0.00 0.00 0.02 0.02 0.03 0.02 0.01 0.01 0.00 0.00 0.00 0.00 0.00 0.00 0.00 0.00 0.00 0.00 0.00 0.00 0.00 0.00 0.01 0.01
0.00 0.00 0.00 0.00 0.00 0.00 0.00 0.00 0.00 0.00 0.00 0.00 0.00 0.00 0.00 0.00 0.00 0.00 0.00 0.00 0.00 0.01 0.02 0.02 0.01 0.00 0.00 0.00 0.00 0.00 0.00 0.00 0.00 0.00 0.00 0.00 0.00 0.01 0.00 0.00 0.00 0.00 0.01
0.00 0.00 0.00 0.00 0.00 0.00 0.00 0.00 0.00 0.00 0.00 0.00 0.00 0.00 0.00 0.00 0.00 0.00 0.00 0.00 0.00 0.01 0.01 0.01 0.00 0.00 0.00 0.00 0.00 0.00 0.00 0.00 0.00 0.00 0.00 0.00 0.00 0.00 0.00 0.00 0.00 0.00 0.01
0.00 0.00 0.00 0.00 0.00 0.00 0.00 0.00 0.00 0.00 0.00 0.00 0.00 0.00 0.00 0.00 0.00 0.00 0.00 0.00 0.01 0.01 0.00 0.00 0.00 0.00 0.00 0.00 0.00 0.00 0.00 0.00 0.00 0.00 0.00 0.00 0.00 0.01 0.01 0.01 0.01 0.01 0.00
0.00 0.00 0.00 0.00 0.00 0.00 0.00 0.00 0.00 0.00 0.00 0.00 0.00 0.00 0.00 0.00 0.00 0.00 0.00 0.01 0.00 0.00 0.00 0.00 0.00 0.00 0.00 0.00 0.00 0.00 0.00 0.00 0.00 0.00 0.00 0.00 0.00 0.01 0.01 0.00 0.00 0.00 0.00
0.00 0.00 0.01 0.01 0.00 0.00 0.00 0.00 0.00 0.00 0.00 0.00 0.00 0.00 0.00 0.00 0.00 0.00 0.01 0.00 0.00 0.00 0.00 0.00 0.00 0.00 0.00 0.00 0.00 0.00 0.00 0.00 0.00 0.00 0.00 0.00 0.01 0.01 0.01 0.01 0.01 0.01 0.01
0.00 0.00 0.01 0.01 0.00 0.00 0.00 0.00 0.00 0.00 0.00 0.00 0.00 0.00 0.00 0.00 0.00 0.01 0.01 0.01 0.00 0.00 0.00 0.00 0.00 0.00 0.00 0.00 0.00 0.00 0.00 0.00 0.00 0.00 0.00 0.00 0.01 0.01 0.01 0.01 0.00 0.01 0.00
0.00 0.00 0.00 0.01 0.01 0.00 0.00 0.00 0.00 0.00 0.00 0.00 0.00 0.00 0.00 0.00 0.00 0.01 0.01 0.00 0.00 0.00 0.00 0.00 0.00 0.00 0.00 0.00 0.00 0.00 0.00 0.00 0.00 0.00 0.00 0.00 0.01 0.01 0.01 0.01 0.00 0.00 0.00
0.01 0.00 0.00 0.01 0.00 0.00 0.00 0.00 0.00 0.00 0.00 0.00 0.00 0.00 0.00 0.00 0.00 0.01 0.01 0.00 0.00 0.00 0.00 0.00 0.00 0.00 0.00 0.00 0.00 0.00 0.00 0.00 0.00 0.00 0.00 0.01 0.01 0.01 0.01 0.01 0.01 0.01 0.01
0.00 0.01 0.00 0.00 0.00 0.00 0.00 0.00 0.00 0.00 0.00 0.00 0.00 0.00 0.00 0.00 0.00 0.01 0.00 0.00 0.00 0.00 0.00 0.00 0.00 0.00 0.00 0.00 0.00 0.00 0.00 0.00 0.00 0.00 0.00 0.00 0.01 0.01 0.01 0.00 0.00 0.00 0.00
0.00 0.00 0.00 0.00 0.00 0.00 0.00 0.00 0.00 0.00 0.00 0.00 0.00 0.00 0.00 0.00 0.01 0.00 0.00 0.00 0.00 0.00 0.00 0.00 0.00 0.00 0.00 0.00 0.00 0.00 0.00 0.00 0.00 0.00 0.00 0.01 0.01 0.01 0.01 0.00 0.00 0.00 0.00
0.01 0.00 0.00 0.00 0.00 0.00 0.00 0.00 0.00 0.00 0.00 0.00 0.00 0.00 0.00 0.00 0.01 0.01 0.00 0.00 0.00 0.00 0.00 0.00 0.00 0.00 0.00 0.00 0.00 0.00 0.00 0.00 0.00 0.00 0.00 0.00 0.00 0.01 0.01 0.00 0.00 0.00 0.01
0.01 0.01 0.00 0.00 0.00 0.00 0.00 0.00 0.00 0.00 0.00 0.00 0.00 0.00 0.00 0.00 0.01 0.01 0.00 0.00 0.00 0.00 0.00 0.00 0.00 0.00 0.00 0.00 0.00 0.00 0.00 0.00 0.00 0.00 0.00 0.00 0.00 0.01 0.01 0.01 0.01 0.00 0.00
0.07 0.04 0.00 0.00 0.00 0.00 0.00 0.00 0.00 0.00 0.00 0.00 0.00 0.00 0.00 0.00 0.00 0.01 0.00 0.00 0.00 0.00 0.00 0.00 0.00 0.00 0.00 0.00 0.00 0.00 0.00 0.00 0.00 0.00 0.00 0.00 0.00 0.00 0.00 0.01 0.01 0.01 0.01
0.11 0.06 0.02 0.00 0.00 0.00 0.00 0.00 0.00 0.00 0.00 0.00 0.00 0.00 0.00 0.00 0.01 0.00 0.00 0.00 0.00 0.00 0.00 0.00 0.00 0.00 0.00 0.00 0.00 0.00 0.00 0.00 0.00 0.00 0.00 0.00 0.00 0.00 0.00 0.00 0.01 0.01 0.00
0.02 0.05 0.02 0.00 0.00 0.00 0.00 0.00 0.00 0.00 0.00 0.00 0.00 0.00 0.00 0.00 0.00 0.00 0.00 0.00 0.00 0.00 0.00 0.00 0.00 0.00 0.00 0.00 0.00 0.00 0.00 0.00 0.00 0.00 0.00 0.00 0.00 0.00 0.00 0.00 0.00 0.01 0.01
0.00 0.04 0.06 0.02 0.00 0.00 0.00 0.00 0.00 0.00 0.00 0.00 0.00 0.00 0.00 0.00 0.00 0.00 0.00 0.00 0.00 0.00 0.00 0.00 0.00 0.00 0.00 0.00 0.00 0.00 0.00 0.00 0.00 0.00 0.00 0.00 0.00 0.00 0.00 0.00 0.00 0.00 0.00
0.00 0.05 0.16 0.05 0.05 0.00 0.00 0.00 0.00 0.00 0.00 0.00 0.00 0.00 0.00 0.00 0.00 0.00 0.00 0.00 0.00 0.00 0.00 0.00 0.00 0.00 0.00 0.00 0.00 0.00 0.00 0.00 0.00 0.00 0.00 0.00 0.00 0.00 0.00 0.00 0.00 0.00 0.00
0.01 0.02 0.10 0.07 0.10 0.08 0.00 0.00 0.00 0.00 0.00 0.00 0.00 0.01 0.01 0.01 0.00 0.00 0.00 0.00 0.00 0.00 0.00 0.00 0.00 0.00 0.00 0.00 0.00 0.00 0.00 0.00 0.00 0.00 0.00 0.00 0.00 0.00 0.00 0.00 0.00 0.00 0.00
0.00 0.01 0.08 0.09 0.07 0.16 0.06 0.00 0.00 0.00 0.00 0.00 0.00 0.02 0.04 0.03 0.02 0.00 0.00 0.00 0.00 0.00 0.00 0.00 0.00 0.00 0.00 0.00 0.00 0.00 0.00 0.00 0.00 0.00 0.00 0.00 0.00 0.00 0.00 0.00 0.00 0.00 0.00
0.01 0.00 0.03 0.08 0.08 0.06 0.21 0.06 0.00 0.00 0.00 0.00 0.00 0.02 0.05 0.07 0.05 0.01 0.00 0.00 0.00 0.00 0.00 0.00 0.00 0.00 0.00 0.00 0.00 0.00 0.00 0.00 0.00 0.00 0.00 0.00 0.00 0.00 0.00 0.00 0.00 0.00 0.00
0.00 0.00 0.05 0.10 0.11 0.09 0.12 0.19 0.01 0.00 0.00 0.00 0.00 0.00 0.01 0.03 0.05 0.03 0.00 0.00 0.00 0.00 0.00 0.00 0.00 0.00 0.00 0.00 0.00 0.00 0.00 0.00 0.00 0.00 0.00 0.00 0.00 0.00 0.00 0.00 0.00 0.00 0.00
0.00 0.01 0.02 0.05 0.08 0.10 0.09 0.11 0.05 0.00 0.00 0.00 0.00 0.00 0.02 0.02 0.02 0.03 0.01 0.00 0.00 0.00 0.00 0.00 0.00 0.00 0.00 0.00 0.00 0.00 0.00 0.00 0.00 0.00 0.00 0.00 0.00 0.00 0.00 0.00 0.00 0.00 0.00
0.00 0.01 0.01 0.05 0.04 0.04 0.05 0.05 0.02 0.00 0.00 0.00 0.00 0.00 0.03 0.05 0.03 0.02 0.03 0.02 0.01 0.00 0.00 0.00 0.00 0.00 0.00 0.00 0.00 0.00 0.00 0.00 0.00 0.00 0.00 0.00 0.00 0.00 0.00 0.00 0.00 0.00 0.00
MSLP
1014.64 1015.24 1016.17 1016.71 1017.10 1017.24 1017.48 1017.63 1017.94 1018.15 1018.43 1018.79 1019.14 1019.44 1019.74 1019.96 1020.04 1020.23 1020.39 1020.56 1020.76 1020.86 1021.08 1021.36 1021.62 1021.84 1022.09 1022.33 1022.50 1022.61 1022.65 1022.69 1022.68 1022.66 1022.68 1022.75 1022.84 1022.92 1023.05 1023.09 1022.97 1022.97 1023.22
1014.28 1015.30 1016.22 1016.85 1017.28 1017.52 1017.81 1017.97 1018.24 1018.45 1018.71 1019.05 1019.40 1019.75 1020.02 1020.22 1020.40 1020.53 1020.71 1020.95 1021.17 1021.33 1021.59 1021.86 1022.20 1022.55 1022.84 1023.02 1023.14 1023.22 1023.25 1023.41 1023.39 1023.35 1023.32 1023.47 1023.61 1023.69 1023.78 1023.85 1023.94 1024.01 1024.09
1014.62 1015.45 1016.32 1017.01 1017.46 1017.78 1018.01 1018.23 1018.55 1018.81 1019.04 1019.37 1019.69 1020.07 1020.32 1020.51 1020.67 1020.82 1020.93 1021.28 1021.67 1021.84 1022.15 1022.43 1022.85 1023.18 1023.43 1023.60 1023.80 1023.90 1023.95 1023.99 1024.11 1024.09 1023.92 1024.15 1024.37 1024.45 1024.50 1024.60 1024.62 1024.65 1024.73
1014.77 1015.60 1016.35 1017.22 1017.71 1018.01 1018.25 1018.47 1018.76 1019.14 1019.42 1019.74 1019.94 1020.26 1020.59 1020.85 1021.02 1021.20 1021.36 1021.56 1022.02 1022.27 1022.65 1023.04 1023.46 1023.73 1023.96 1024.17 1024.33 1024.45 1024.54 1024.60 1024.62 1024.53 1024.67 1025.03 1025.06 1025.18 1025.17 1025.27 1025.28 1025.26 1025.32
1015.10 1015.75 1016.53 1017.37 1017.86 1018.23 1018.53 1018.76 1019.05 1019.39 1019.74 1020.04 1020.23 1020.51 1020.80 1021.07 1021.32 1021.59 1021.84 1022.08 1022.40 1022.79 1023.18 1023.65 1023.99 1024.30 1024.53 1024.70 1024.87 1024.99 1025.05 1025.07 1024.97 1024.81 1025.09 1025.63 1025.45 1025.91 1025.98 1025.99 1025.96 1025.97 1025.95
1015.34 1016.05 1016.97 1017.57 1018.05 1018.42 1018.81 1019.06 1019.40 1019.70 1019.98 1020.27 1020.56 1020.83 1021.13 1021.41 1021.72 1022.03 1022.37 1022.58 1022.87 1023.35 1023.86 1024.28 1024.57 1024.84 1025.02 1025.19 1025.32 1025.51 1025.69 1025.50 1025.25 1025.55 1025.96 1026.21 1026.38 1026.51 1026.52 1026.66 1026.72 1026.68 1026.59
1015.70 1016.33 1017.15 1017.88 1018.34 1018.76 1019.07 1019.35 1019.72 1020.02 1020.22 1020.50 1020.82 1021.12 1021.48 1021.79 1022.04 1022.45 1022.85 1023.21 1023.54 1024.03 1024.52 1024.86 1025.09 1025.32 1025.53 1025.72 1025.88 1026.05 1026.17 1026.01 1025.77 1026.09 1026.57 1026.89 1027.08 1027.20 1027.19 1027.23 1027.30 1027.24 1027.26
1015.99 1016.45 1017.24 1018.14 1018.54 1019.03 1019.36 1019.71 1020.04 1020.29 1020.51 1020.77 1021.11 1021.38 1021.75 1022.11 1022.40 1022.84 1023.31 1023.76 1024.24 1024.71 1025.03 1025.38 1025.63 1025.82 1026.05 1026.29 1026.45 1026.59 1026.66 1026.49 1026.25 1026.86 1027.03 1027.29 1027.62 1027.83 1028.00 1027.89 1027.93 1027.91 1027.95
1016.37 1016.82 1017.33 1018.06 1018.76 1019.33 1019.69 1020.04 1020.30 1020.59 1020.84 1021.14 1021.39 1021.71 1022.04 1022.42 1022.75 1023.20 1023.74 1024.17 1024.86 1025.21 1025.54 1025.89 1026.17 1026.39 1026.63 1026.88 1027.07 1027.16 1027.25 1027.13 1027.10 1027.50 1027.70 1028.04 1028.23 1028.30 1028.50 1028.49 1028.48 1028.51 1028.52
1016.61 1017.01 1017.50 1018.01 1018.74 1019.40 1020.05 1020.38 1020.61 1020.93 1021.18 1021.51 1021.83 1022.14 1022.42 1022.71 1023.11 1023.57 1023.96 1024.65 1025.37 1025.71 1025.99 1026.33 1026.70 1026.96 1027.22 1027.44 1027.70 1027.77 1027.82 1027.49 1027.51 1027.73 1028.44 1028.68 1028.75 1028.85 1029.07 1028.95 1029.06 1029.04 1029.10
1016.79 1017.27 1017.71 1017.93 1018.65 1019.42 1020.01 1020.70 1021.04 1021.37 1021.69 1021.95 1022.31 1022.62 1022.87 1023.03 1023.50 1023.90 1024.67 1025.24 1025.82 1026.22 1026.54 1026.89 1027.26 1027.50 1027.75 1028.00 1028.34 1028.39 1028.10 1028.05 1028.44 1028.74 1029.10 1029.35 1029.38 1029.36 1029.59 1029.74 1029.74 1029.80 1029.81
1016.54 1017.27 1017.77 1018.14 1018.78 1019.53 1020.16 1020.69 1021.13 1021.54 1021.90 1022.19 1022.46 1022.91 1023.06 1023.65 1024.04 1024.62 1025.32 1025.91 1026.29 1026.82 1027.16 1027.52 1027.93 1028.08 1027.97 1028.17 1028.73 1028.85 1028.68 1028.77 1028.97 1029.15 1029.59 1029.79 1029.83 1029.78 1029.98 1030.30 1030.27 1030.29 1030.35
1016.04 1016.93 1017.72 1018.32 1019.05 1019.58 1020.07 1020.71 1021.17 1021.69 1022.26 1022.73 1022.95 1023.07 1023.68 1024.16 1024.64 1025.23 1025.83 1026.40 1026.77 1027.09 1027.46 1027.95 1028.17 1028.21 1028.56 1028.70 1029.02 1029.20 1029.36 1029.26 1028.97 1029.52 1030.12 1030.20 1030.19 1030.19 1030.45 1030.76 1030.84 1030.79 1030.78
1015.99 1016.76 1017.60 1018.29 1019.06 1019.60 1020.14 1020.82 1021.27 1021.83 1022.45 1022.85 1023.11 1023.41 1023.99 1024.41 1024.94 1025.47 1025.88 1026.59 1026.75 1027.18 1027.82 1028.11 1028.52 1028.97 1029.26 1029.50 1029.64 1029.92 1030.00 1029.88 1029.99 1030.16 1030.63 1030.71 1030.65 1030.68 1030.84 1031.05 1031.24 1031.21 1031.29
1016.07 1016.56 1017.41 1018.19 1018.95 1019.49 1020.07 1020.85 1021.43 1021.98 1022.53 1022.98 1023.37 1023.78 1024.05 1024.44 1024.94 1025.52 1026.23 1026.69 1027.26 1027.75 1027.99 1028.38 1028.93 1029.27 1029.74 1030.04 1030.18 1030.40 1030.64 1030.81 1030.97 1030.78 1031.20 1031.44 1031.26 1031.25 1031.17 1031.33 1031.56 1031.78 1031.82
1016.36 1017.01 1017.61 1018.29 1018.94 1019.44 1019.79 1020.75 1021.48 1022.03 1022.55 1023.07 1023.53 1023.94 1024.18 1024.53 1024.97 1025.56 1026.38 1026.87 1027.64 1027.87 1028.22 1028.66 1029.12 1029.55 1030.04 1030.50 1030.86 1031.06 1031.27 1031.37 1031.61 1031.67 1031.63 1032.06 1032.12 1032.01 1031.85 1031.77 1031.89 1032.08 1032.34
1016.33 1016.85 1017.56 1018.31 1018.85 1019.46 1019.82 1020.56 1021.49 1022.09 1022.41 1023.08 1023.48 1023.97 1024.15 1024.56 1025.03 1025.71 1026.32 1026.94 1027.47 1028.14 1028.59 1029.12 1029.67 1029.98 1030.47 1031.03 1031.38 1031.66 1031.86 1032.17 1032.34 1032.47 1032.47 1032.43 1032.51 1032.73 1032.66 1032.47 1032.31 1032.27 1032.44
1015.87 1016.38 1017.00 1017.80 1018.71 1019.42 1019.84 1020.47 1021.35 1022.12 1022.24 1022.74 1023.24 1023.81 1024.08 1024.52 1025.07 1025.73 1026.22 1026.61 1027.48 1028.16 1028.72 1029.14 1029.66 1030.08 1030.66 1031.28 1031.72 1032.00 1032.32 1032.65 1033.05 1033.21 1033.17 1033.08 1033.17 1033.14 1033.41 1033.27 1033.12 1032.87 1032.79
1015.08 1015.97 1016.66 1017.28 1018.13 1019.24 1019.82 1020.64 1021.30 1021.76 1022.01 1022.28 1022.94 1023.61 1024.00 1024.45 1024.98 1025.58 1026.09 1026.81 1027.57 1027.92 1028.95 1029.27 1029.84 1030.25 1030.80 1031.50 1032.16 1032.48 1032.70 1033.02 1033.35 1033.66 1033.80 1033.83 1033.94 1033.77 1033.69 1034.03 1033.77 1033.62 1033.36
1014.68 1015.48 1016.60 1017.30 1017.90 1019.01 1019.91 1020.73 1021.05 1021.60 1021.88 1022.18 1022.68 1023.34 1023.85 1024.26 1024.75 1025.44 1026.06 1027.04 1027.57 1027.75 1028.95 1029.59 1029.88 1030.58 1030.99 1031.44 1032.31 1033.05 1033.27 1033.55 1033.87 1034.03 1034.23 1034.24 1034.32 1034.33 1034.17 1034.21 1033.97 1033.97 1034.20
1014.33 1015.12 1015.82 1016.77 1017.70 1018.22 1019.60 1020.15 1020.63 1020.70 1021.59 1021.90 1022.37 1023.01 1023.64 1024.02 1024.46 1025.06 1026.00 1026.87 1027.34 1027.90 1028.65 1029.70 1029.99 1030.52 1031.30 1031.86 1032.21 1033.15 1033.66 1034.05 1034.21 1034.29 1034.46 1034.42 1034.50 1034.66 1034.63 1034.57 1034.38 1034.37 1034.36
1013.65 1014.45 1015.27 1016.14 1017.05 1017.56 1018.91 1019.56 1020.09 1020.23 1020.79 1021.34 1021.83 1022.52 1023.27 1023.67 1024.13 1024.64 1025.52 1026.43 1027.03 1027.85 1028.80 1029.60 1029.93 1030.33 1031.27 1031.49 1031.37 1032.27 1032.95 1033.98 1034.19 1034.30 1034.47 1034.53 1034.62 1034.73 1034.81 1034.93 1034.87 1034.85 1034.79
1013.29 1013.87 1014.59 1015.27 1016.30 1017.27 1017.57 1019.26 1019.77 1020.19 1020.65 1021.15 1021.63 1022.11 1022.76 1023.13 1023.73 1024.15 1025.03 1025.79 1026.60 1027.35 1028.26 1028.91 1029.38 1029.54 1030.08 1031.10 1031.17 1030.98 1031.88 1031.79 1033.07 1034.01 1034.30 1034.33 1034.66 1034.71 1034.95 1035.07 1035.18 1035.20 1035.26
1012.69 1013.41 1014.02 1015.01 1015.81 1016.76 1017.93 1018.28 1019.10 1019.24 1019.38 1020.09 1020.74 1021.28 1022.11 1022.70 1023.25 1023.68 1024.49 1025.24 1026.08 1026.84 1027.75 1028.40 1028.93 1028.95 1029.36 1029.95 1030.88 1031.09 1031.30 1031.23 1031.66 1032.98 1033.84 1034.23 1034.48 1034.70 1034.92 1034.92 1035.17 1035.37 1035.44
1011.73 1012.46 1013.48 1014.19 1015.14 1015.72 1016.89 1018.07 1018.41 1018.54 1018.61 1019.28 1019.99 1020.69 1021.38 1022.10 1022.63 1023.28 1023.85 1024.66 1025.65 1026.34 1027.12 1027.70 1028.57 1028.86 1029.09 1029.24 1029.74 1030.37 1030.92 1031.07 1031.28 1031.30 1032.15 1033.25 1034.06 1034.30 1034.52 1034.78 1034.85 1035.09 1035.38
1011.36 1012.11 1012.93 1013.53 1014.31 1015.30 1015.96 1016.93 1017.79 1017.62 1017.66 1018.08 1018.72 1019.70 1020.59 1021.45 1021.95 1022.58 1023.40 1023.96 1024.75 1025.74 1026.49 1027.16 1027.84 1028.32 1028.52 1028.99 1029.42 1029.69 1029.69 1029.90 1030.24 1030.60 1031.28 1032.23 1032.68 1033.64 1034.03 1034.41 1034.77 1034.84 1035.08
Thickness
5743 5740 5735 5732 5731 5732 5731 5729 5726 5724 5721 5718 5715 5713 5712 5710 5710 5709 5708 5707 5705 5705 5703 5701 5698 5696 5694 5692 5690 5688 5686 5685 5683 5681 5679 5677 5675 5673 5670 5668 5666 5664 5660
5747 5739 5734 5730 5728 5729 5728 5726 5724 5723 5720 5717 5714 5712 5711 5709 5709 5708 5707 5705 5703 5702 5700 5697 5694 5692 5689 5687 5685 5683 5681 5678 5676 5675 5673 5670 5667 5665 5663 5661 5657 5653 5650
5744 5737 5732 5728 5726 5725 5725 5724 5721 5720 5718 5715 5713 5710 5708 5707 5707 5707 5706 5703 5700 5699 5696 5693 5690 5688 5685 5682 5679 5677 5675 5673 5670 5668 5667 5663 5659 5657 5654 5651 5648 5645 5641
5741 5736 5730 5726 5723 5722 5722 5721 5720 5717 5715 5713 5712 5709 5707 5704 5704 5703 5703 5701 5698 5696 5692 5689 5686 5683 5681 5678 5675 5672 5670 5668 5665 5663 5660 5655 5652 5649 5646 5643 5639 5636 5633
5737 5733 5728 5723 5721 5719 5718 5718 5716 5714 5711 5709 5709 5707 5705 5703 5701 5700 5698 5697 5695 5691 5688 5685 5682 5679 5676 5673 5670 5667 5665 5663 5661 5660 5654 5648 5647 5641 5638 5634 5631 5628 5624
5735 5730 5724 5720 5718 5717 5715 5714 5712 5711 5709 5707 5705 5703 5701 5700 5698 5696 5694 5693 5692 5687 5683 5680 5677 5674 5672 5668 5666 5662 5659 5658 5657 5651 5646 5641 5638 5634 5631 5627 5623 5620 5616
5731 5726 5721 5716 5714 5713 5711 5710 5708 5707 5707 5705 5703 5701 5699 5696 5696 5693 5690 5688 5686 5683 5679 5675 5673 5670 5667 5663 5660 5657 5655 5653 5651 5646 5640 5635 5631 5626 5623 5619 5615 5611 5608
5726 5723 5718 5713 5711 5709 5707 5705 5704 5704 5704 5703 5700 5699 5696 5694 5693 5690 5687 5684 5681 5677 5674 5670 5667 5665 5661 5658 5655 5653 5650 5647 5646 5638 5634 5630 5623 5618 5614 5611 5607 5604 5601
5720 5718 5715 5711 5707 5705 5703 5701 5701 5700 5700 5698 5697 5696 5695 5691 5689 5687 5684 5681 5674 5672 5669 5665 5662 5659 5656 5652 5649 5647 5644 5640 5638 5632 5628 5622 5616 5612 5607 5604 5601 5598 5596
5717 5715 5711 5709 5705 5701 5697 5697 5697 5696 5696 5694 5693 5692 5691 5689 5686 5684 5682 5676 5669 5666 5663 5660 5656 5653 5650 5647 5644 5642 5638 5636 5633 5628 5620 5615 5611 5606 5601 5598 5596 5593 5590
5714 5711 5708 5707 5703 5699 5695 5691 5691 5690 5689 5689 5688 5686 5686 5685 5681 5679 5675 5671 5664 5660 5657 5654 5650 5648 5645 5642 5638 5635 5633 5630 5624 5619 5614 5609 5604 5601 5596 5592 5589 5587 5585
5710 5707 5705 5703 5700 5696 5692 5689 5686 5685 5684 5684 5683 5682 5682 5679 5676 5673 5668 5663 5659 5653 5650 5647 5644 5642 5641 5637 5631 5628 5626 5623 5618 5614 5609 5604 5600 5597 5593 5587 5584 5582 5580
5709 5707 5704 5699 5695 5693 5690 5686 5684 5682 5679 5678 5678 5678 5676 5673 5670 5666 5662 5657 5653 5650 5646 5642 5639 5638 5634 5632 5627 5623 5619 5617 5616 5610 5604 5599 5596 5593 5589 5583 5579 5578 5575
5702 5701 5699 5696 5692 5689 5686 5682 5681 5679 5676 5674 5674 5674 5672 5670 5666 5662 5659 5654 5651 5647 5642 5639 5635 5631 5628 5624 5621 5615 5612 5610 5608 5604 5598 5595 5591 5589 5585 5581 5576 5574 5571
5693 5696 5693 5690 5687 5686 5682 5679 5676 5675 5672 5671 5670 5669 5669 5667 5665 5659 5654 5650 5646 5641 5639 5635 5630 5626 5622 5617 5613 5609 5606 5602 5599 5597 5592 5589 5587 5584 5581 5578 5573 5569 5566
5685 5684 5685 5684 5681 5680 5680 5675 5672 5671 5669 5667 5666 5666 5665 5664 5662 5657 5651 5646 5640 5638 5634 5629 5625 5622 5617 5611 5606 5603 5599 5597 5593 5590 5588 5583 5581 5578 5575 5574 5571 5567 5562
5676 5677 5676 5675 5676 5674 5674 5672 5668 5666 5666 5663 5663 5662 5662 5661 5658 5653 5649 5643 5638 5632 5628 5623 5618 5615 5610 5604 5600 5596 5593 5589 5586 5582 5580 5578 5576 5573 5570 5569 5567 5565 5560
5674 5673 5672 5670 5669 5668 5668 5667 5664 5661 5663 5662 5661 5659 5659 5658 5655 5650 5646 5642 5635 5629 5624 5620 5615 5611 5605 5599 5595 5591 5587 5584 5579 5576 5575 5573 5570 5568 5564 5563 5561 5560 5557
5673 5670 5668 5670 5667 5664 5662 5660 5659 5658 5660 5660 5659 5656 5656 5655 5652 5648 5644 5638 5633 5629 5620 5616 5611 5607 5601 5595 5589 5585 5582 5579 5575 5571 5568 5567 5564 5563 5561 5558 5557 5554 5552
5670 5668 5662 5661 5662 5658 5655 5653 5653 5653 5656 5657 5656 5653 5652 5651 5649 5645 5640 5634 5630 5627 5618 5613 5609 5602 5597 5593 5586 5580 5576 5573 5570 5567 5564 5562 5560 5558 5557 5553 5552 5550 5547
5665 5662 5661 5655 5656 5655 5647 5651 5652 5656 5653 5654 5653 5651 5649 5648 5647 5643 5638 5633 5628 5624 5619 5610 5607 5601 5594 5588 5585 5577 5571 5568 5566 5564 5560 5559 5556 5553 5552 5550 5548 5545 5542
5663 5661 5658 5653 5651 5650 5645 5646 5647 5651 5651 5649 5649 5649 5646 5646 5645 5642 5638 5633 5628 5622 5616 5609 5606 5601 5591 5588 5590 5583 5577 5568 5565 5563 5559 5556 5554 5551 5548 5545 5543 5540 5537
5656 5656 5656 5653 5648 5645 5643 5636 5638 5640 5641 5643 5647 5648 5645 5646 5643 5642 5637 5633 5628 5621 5615 5610 5607 5604 5598 5588 5589 5592 5582 5586 5573 5564 5559 5556 5552 5549 5544 5541 5538 5536 5533
5653 5650 5651 5646 5643 5640 5635 5637 5636 5641 5647 5649 5649 5648 5644 5643 5641 5640 5636 5632 5627 5620 5614 5610 5605 5605 5600 5595 5588 5587 5585 5585 5582 5570 5560 5555 5551 5547 5543 5541 5537 5533 5530
5653 5650 5645 5644 5641 5639 5638 5632 5632 5637 5645 5646 5646 5644 5644 5641 5640 5638 5636 5631 5625 5619 5615 5611 5605 5601 5599 5598 5595 5590 5586 5583 5581 5580 5573 5561 5553 5548 5544 5540 5538 5534 5530
5646 5644 5642 5640 5637 5636 5635 5632 5631 5639 5643 5647 5648 5645 5644 5640 5639 5638 5634 5631 5626 5620 5616 5611 5607 5601 5600 5597 5594 5592 5592 5590 5586 5581 5574 5566 5564 5551 5546 5541 5537 5534 5530